Time,TemperatureF,DewpointF,PressureIn,WindDirection,WindDirectionDegrees,WindSpeedMPH,WindSpeedGustMPH,Humidity,HourlyPrecipIn,Conditions,Clouds,dailyrainin,SoftwareType,DateUTC
2013-05-24 00:03:00,70.0,69.0,30.01,WNW,294,0.0,0.0,96,0.00,,,0.01,,2013-05-24 04:03:00,
2013-05-24 00:12:00,70.0,69.0,30.01,WNW,294,0.0,0.0,96,0.00,,,0.01,,2013-05-24 04:12:00,
2013-05-24 00:22:00,70.0,69.0,30.01,WNW,294,0.0,1.0,96,0.00,,,0.01,,2013-05-24 04:22:00,
2013-05-24 00:33:00,69.0,68.0,30.01,WNW,288,1.0,3.0,97,0.00,,,0.01,,2013-05-24 04:33:00,
2013-05-24 00:42:00,69.0,68.0,30.01,WNW,288,1.0,3.0,97,0.00,,,0.01,,2013-05-24 04:42:00,
2013-05-24 00:53:00,70.0,69.0,30.01,West,281,0.0,5.0,97,0.00,,,0.01,,2013-05-24 04:53:00,
2013-05-24 01:02:00,70.0,69.0,30.01,West,281,0.0,2.0,97,0.00,,,0.01,,2013-05-24 05:02:00,
2013-05-24 01:12:00,70.0,69.0,30.01,West,281,0.0,2.0,97,0.00,,,0.01,,2013-05-24 05:12:00,
2013-05-24 01:22:00,70.0,69.0,30.01,West,281,0.0,0.0,97,0.00,,,0.01,,2013-05-24 05:22:00,
2013-05-24 01:32:00,70.0,69.0,30.02,West,281,0.0,0.0,97,0.00,,,0.01,,2013-05-24 05:32:00,
2013-05-24 01:42:00,70.0,69.0,30.02,West,281,0.0,0.0,97,0.00,,,0.01,,2013-05-24 05:42:00,
2013-05-24 01:52:00,70.0,69.0,30.01,West,281,0.0,0.0,97,0.00,,,0.01,,2013-05-24 05:52:00,
2013-05-24 02:02:00,69.0,68.0,30.01,West,281,0.0,0.0,97,0.00,,,0.01,,2013-05-24 06:02:00,
2013-05-24 02:12:00,69.0,68.0,30.01,West,281,0.0,0.0,97,0.00,,,0.01,,2013-05-24 06:12:00,
2013-05-24 02:21:00,69.0,68.0,30.01,West,281,0.0,0.0,97,0.00,,,0.01,,2013-05-24 06:21:00,
2013-05-24 02:32:00,69.0,68.0,30.01,West,281,0.0,0.0,98,0.00,,,0.01,,2013-05-24 06:32:00,
2013-05-24 02:42:00,69.0,68.0,30.01,West,281,0.0,0.0,98,0.00,,,0.01,,2013-05-24 06:42:00,
2013-05-24 02:52:00,69.0,68.0,30.01,West,281,0.0,0.0,98,0.00,,,0.01,,2013-05-24 06:52:00,
2013-05-24 03:01:00,69.0,68.0,30.00,West,281,0.0,0.0,97,0.00,,,0.01,,2013-05-24 07:01:00,
2013-05-24 03:11:00,69.0,68.0,30.00,West,281,0.0,0.0,97,0.00,,,0.01,,2013-05-24 07:11:00,
2013-05-24 03:22:00,68.0,67.0,30.00,West,281,0.0,0.0,98,0.00,,,0.01,,2013-05-24 07:22:00,
2013-05-24 03:32:00,68.0,67.0,30.00,West,281,0.0,0.0,98,0.00,,,0.01,,2013-05-24 07:32:00,
2013-05-24 03:42:00,68.0,67.0,30.00,West,281,0.0,0.0,98,0.00,,,0.01,,2013-05-24 07:42:00,
2013-05-24 03:52:00,68.0,67.0,30.00,West,281,0.0,0.0,98,0.00,,,0.01,,2013-05-24 07:52:00,
2013-05-24 04:02:00,68.0,67.0,29.99,West,281,0.0,3.0,98,0.00,,,0.01,,2013-05-24 08:02:00,
2013-05-24 04:11:00,68.0,67.0,29.99,West,281,0.0,3.0,98,0.00,,,0.01,,2013-05-24 08:11:00,
2013-05-24 04:22:00,68.0,67.0,29.99,West,281,0.0,1.0,98,0.00,,,0.01,,2013-05-24 08:22:00,
2013-05-24 04:33:00,68.0,67.0,29.99,WNW,283,0.0,2.0,98,0.00,,,0.01,,2013-05-24 08:33:00,
2013-05-24 04:42:00,68.0,67.0,29.99,WNW,283,0.0,2.0,98,0.00,,,0.01,,2013-05-24 08:42:00,
2013-05-24 04:52:00,68.0,67.0,29.99,WNW,283,1.0,2.0,98,0.00,,,0.01,,2013-05-24 08:52:00,
2013-05-24 05:02:00,68.0,67.0,29.99,WNW,283,0.0,1.0,98,0.00,,,0.01,,2013-05-24 09:02:00,
2013-05-24 05:11:00,68.0,67.0,29.99,WNW,283,0.0,1.0,98,0.00,,,0.01,,2013-05-24 09:11:00,
2013-05-24 05:22:00,68.0,67.0,29.99,WNW,283,0.0,0.0,98,0.00,,,0.01,,2013-05-24 09:22:00,
2013-05-24 05:33:00,68.0,67.0,29.99,WNW,283,0.0,0.0,98,0.00,,,0.01,,2013-05-24 09:33:00,
2013-05-24 05:42:00,68.0,67.0,29.99,WNW,283,0.0,0.0,98,0.00,,,0.01,,2013-05-24 09:42:00,
2013-05-24 05:52:00,68.0,67.0,29.99,WNW,283,0.0,0.0,98,0.00,,,0.01,,2013-05-24 09:52:00,
2013-05-24 06:03:00,68.0,67.0,30.00,WNW,283,0.0,1.0,98,0.00,,,0.01,,2013-05-24 10:03:00,
2013-05-24 06:12:00,68.0,67.0,30.00,WNW,283,0.0,1.0,98,0.00,,,0.01,,2013-05-24 10:12:00,
2013-05-24 06:23:00,68.0,67.0,30.01,WNW,283,0.0,1.0,98,0.00,,,0.01,,2013-05-24 10:23:00,
2013-05-24 06:33:00,68.0,67.0,30.01,WNW,283,0.0,0.0,98,0.00,,,0.01,,2013-05-24 10:33:00,
2013-05-24 06:42:00,68.0,67.0,30.01,WNW,283,0.0,0.0,98,0.00,,,0.01,,2013-05-24 10:42:00,
2013-05-24 06:52:00,68.0,67.0,30.01,WNW,283,0.0,0.0,98,0.00,,,0.01,,2013-05-24 10:52:00,
2013-05-24 07:02:00,68.0,67.0,30.02,WNW,283,0.0,0.0,98,0.00,,,0.01,,2013-05-24 11:02:00,
2013-05-24 07:12:00,68.0,67.0,30.02,WNW,283,0.0,0.0,98,0.00,,,0.01,,2013-05-24 11:12:00,
2013-05-24 07:22:00,68.0,67.0,30.02,WNW,283,0.0,0.0,98,0.00,,,0.01,,2013-05-24 11:22:00,
2013-05-24 07:32:00,68.0,67.0,30.03,WNW,283,0.0,0.0,98,0.00,,,0.01,,2013-05-24 11:32:00,
2013-05-24 07:42:00,68.0,67.0,30.03,WNW,283,0.0,0.0,98,0.00,,,0.01,,2013-05-24 11:42:00,
2013-05-24 07:52:00,69.0,69.0,30.04,WNW,283,0.0,2.0,99,0.00,,,0.01,,2013-05-24 11:52:00,
2013-05-24 08:02:00,71.0,71.0,30.04,West,275,1.0,4.0,99,0.00,,,0.01,,2013-05-24 12:02:00,
2013-05-24 08:12:00,71.0,71.0,30.04,West,275,1.0,4.0,99,0.00,,,0.01,,2013-05-24 12:12:00,
2013-05-24 08:22:00,72.0,72.0,30.04,WNW,294,1.0,4.0,99,0.00,,,0.01,,2013-05-24 12:22:00,
2013-05-24 08:33:00,73.0,73.0,30.04,West,265,3.0,6.0,99,0.00,,,0.00,,2013-05-24 12:33:00,
2013-05-24 08:42:00,73.0,73.0,30.04,West,265,3.0,6.0,99,0.00,,,0.00,,2013-05-24 12:42:00,
2013-05-24 08:52:00,74.0,73.0,30.04,WNW,290,2.0,7.0,98,0.00,,,0.00,,2013-05-24 12:52:00,
2013-05-24 09:02:00,75.0,74.0,30.04,NW,313,1.0,6.0,98,0.00,,,0.00,,2013-05-24 13:02:00,
2013-05-24 09:11:00,75.0,74.0,30.04,NW,313,1.0,6.0,98,0.00,,,0.00,,2013-05-24 13:11:00,
2013-05-24 09:22:00,75.0,74.0,30.05,NE,40,1.0,8.0,97,0.00,,,0.00,,2013-05-24 13:22:00,
2013-05-24 09:32:00,76.0,75.0,30.05,North,350,0.0,9.0,96,0.00,,,0.00,,2013-05-24 13:32:00,
2013-05-24 09:42:00,76.0,75.0,30.05,North,350,0.0,9.0,96,0.00,,,0.00,,2013-05-24 13:42:00,
2013-05-24 09:52:00,78.0,75.0,30.05,WNW,300,4.0,9.0,92,0.00,,,0.00,,2013-05-24 13:52:00,
2013-05-24 10:02:00,79.0,76.0,30.05,WNW,300,3.0,8.0,90,0.00,,,0.00,,2013-05-24 14:02:00,
2013-05-24 10:11:00,79.0,76.0,30.05,WNW,300,3.0,8.0,90,0.00,,,0.00,,2013-05-24 14:11:00,
2013-05-24 10:22:00,80.0,76.0,30.05,NW,304,3.0,8.0,87,0.00,,,0.00,,2013-05-24 14:22:00,
2013-05-24 10:32:00,82.0,77.0,30.05,West,263,2.0,8.0,86,0.00,,,0.00,,2013-05-24 14:32:00,
2013-05-24 10:42:00,82.0,77.0,30.05,West,263,2.0,8.0,86,0.00,,,0.00,,2013-05-24 14:42:00,
2013-05-24 10:52:00,82.0,76.0,30.06,NW,321,4.0,7.0,81,0.00,,,0.00,,2013-05-24 14:52:00,
2013-05-24 11:02:00,83.0,76.0,30.06,NNW,328,4.0,7.0,79,0.00,,,0.00,,2013-05-24 15:02:00,
2013-05-24 11:11:00,83.0,76.0,30.06,NNW,328,4.0,7.0,79,0.00,,,0.00,,2013-05-24 15:11:00,
2013-05-24 11:22:00,85.0,76.0,30.06,NW,312,1.0,6.0,75,0.00,,,0.00,,2013-05-24 15:22:00,
2013-05-24 11:33:00,85.0,77.0,30.06,NE,34,2.0,9.0,76,0.00,,,0.00,,2013-05-24 15:33:00,
2013-05-24 11:43:00,85.0,77.0,30.06,NE,34,2.0,9.0,76,0.00,,,0.00,,2013-05-24 15:43:00,
2013-05-24 11:52:00,86.0,76.0,30.06,North,360,3.0,9.0,73,0.00,,,0.00,,2013-05-24 15:52:00,
2013-05-24 12:03:00,87.0,76.0,30.06,WNW,292,4.0,8.0,70,0.00,,,0.00,,2013-05-24 16:03:00,
2013-05-24 12:13:00,87.0,76.0,30.06,WNW,292,4.0,8.0,70,0.00,,,0.00,,2013-05-24 16:13:00,
2013-05-24 12:22:00,88.0,73.0,30.06,NNW,334,3.0,7.0,61,0.00,,,0.00,,2013-05-24 16:22:00,
2013-05-24 12:32:00,88.0,74.0,30.05,WSW,248,4.0,8.0,63,0.00,,,0.00,,2013-05-24 16:32:00,
2013-05-24 12:42:00,88.0,74.0,30.05,WSW,248,4.0,8.0,63,0.00,,,0.00,,2013-05-24 16:42:00,
2013-05-24 12:52:00,89.0,73.0,30.06,NW,321,2.0,8.0,60,0.00,,,0.00,,2013-05-24 16:52:00,
2013-05-24 13:02:00,90.0,73.0,30.05,NW,312,3.0,7.0,57,0.00,,,0.00,,2013-05-24 17:02:00,
2013-05-24 13:12:00,90.0,73.0,30.05,NW,312,3.0,7.0,57,0.00,,,0.00,,2013-05-24 17:12:00,
2013-05-24 13:22:00,90.0,72.0,30.06,WNW,283,3.0,9.0,56,0.00,,,0.00,,2013-05-24 17:22:00,
2013-05-24 13:32:00,90.0,71.0,30.05,NNW,332,4.0,9.0,54,0.00,,,0.00,,2013-05-24 17:32:00,
2013-05-24 13:42:00,90.0,71.0,30.05,NNW,332,4.0,9.0,54,0.00,,,0.00,,2013-05-24 17:42:00,
2013-05-24 13:52:00,91.0,69.0,30.05,West,263,4.0,10.0,49,0.00,,,0.00,,2013-05-24 17:52:00,
2013-05-24 14:01:00,90.0,68.0,30.04,West,264,3.0,13.0,49,0.00,,,0.00,,2013-05-24 18:01:00,
2013-05-24 14:12:00,90.0,68.0,30.04,West,264,3.0,13.0,49,0.00,,,0.00,,2013-05-24 18:12:00,
2013-05-24 14:22:00,91.0,70.0,30.04,West,279,6.0,12.0,51,0.00,,,0.00,,2013-05-24 18:22:00,
2013-05-24 14:32:00,92.0,65.0,30.04,WNW,295,4.0,9.0,41,0.00,,,0.00,,2013-05-24 18:32:00,
2013-05-24 14:42:00,92.0,65.0,30.04,WNW,295,4.0,9.0,41,0.00,,,0.00,,2013-05-24 18:42:00,
2013-05-24 14:52:00,92.0,69.0,30.03,WNW,288,3.0,8.0,47,0.00,,,0.00,,2013-05-24 18:52:00,
2013-05-24 15:01:00,92.0,67.0,30.03,WSW,250,1.0,10.0,44,0.00,,,0.00,,2013-05-24 19:01:00,
2013-05-24 15:11:00,92.0,67.0,30.03,WSW,250,1.0,10.0,44,0.00,,,0.00,,2013-05-24 19:11:00,
2013-05-24 15:21:00,93.0,66.0,30.03,WNW,297,4.0,8.0,41,0.00,,,0.00,,2013-05-24 19:21:00,
2013-05-24 15:32:00,92.0,66.0,30.03,NW,306,3.0,9.0,42,0.00,,,0.00,,2013-05-24 19:32:00,
2013-05-24 15:42:00,92.0,66.0,30.03,NW,306,3.0,9.0,42,0.00,,,0.00,,2013-05-24 19:42:00,
2013-05-24 15:52:00,92.0,68.0,30.02,West,275,5.0,12.0,45,0.00,,,0.00,,2013-05-24 19:52:00,
2013-05-24 16:02:00,93.0,68.0,30.02,WNW,291,7.0,14.0,45,0.00,,,0.00,,2013-05-24 20:02:00,
2013-05-24 16:12:00,93.0,68.0,30.02,WNW,291,7.0,14.0,45,0.00,,,0.00,,2013-05-24 20:12:00,
2013-05-24 16:22:00,92.0,66.0,30.02,WSW,247,6.0,11.0,42,0.00,,,0.00,,2013-05-24 20:22:00,
2013-05-24 16:32:00,93.0,64.0,30.01,NW,309,2.0,11.0,39,0.00,,,0.00,,2013-05-24 20:32:00,
2013-05-24 16:42:00,93.0,64.0,30.01,NW,309,2.0,11.0,39,0.00,,,0.00,,2013-05-24 20:42:00,
2013-05-24 16:52:00,92.0,63.0,30.01,WNW,282,5.0,8.0,38,0.00,,,0.00,,2013-05-24 20:52:00,
2013-05-24 17:01:00,92.0,64.0,30.01,WNW,282,7.0,16.0,40,0.00,,,0.00,,2013-05-24 21:01:00,
2013-05-24 17:12:00,92.0,64.0,30.01,WNW,282,7.0,16.0,40,0.00,,,0.00,,2013-05-24 21:12:00,
2013-05-24 17:21:00,91.0,63.0,30.01,NW,314,6.0,13.0,39,0.00,,,0.00,,2013-05-24 21:21:00,
2013-05-24 17:33:00,91.0,61.0,30.01,North,349,5.0,14.0,37,0.00,,,0.00,,2013-05-24 21:33:00,
2013-05-24 17:43:00,91.0,61.0,30.01,North,349,5.0,14.0,37,0.00,,,0.00,,2013-05-24 21:43:00,
2013-05-24 17:53:00,91.0,61.0,30.01,WNW,298,4.0,14.0,37,0.00,,,0.00,,2013-05-24 21:53:00,
2013-05-24 18:03:00,91.0,62.0,30.01,NNW,327,2.0,10.0,38,0.00,,,0.00,,2013-05-24 22:03:00,
2013-05-24 18:12:00,91.0,62.0,30.01,NNW,327,2.0,10.0,38,0.00,,,0.00,,2013-05-24 22:12:00,
2013-05-24 18:22:00,90.0,61.0,30.01,NNW,335,5.0,11.0,38,0.00,,,0.00,,2013-05-24 22:22:00,
2013-05-24 18:33:00,89.0,61.0,30.01,WNW,296,4.0,12.0,39,0.00,,,0.00,,2013-05-24 22:33:00,
2013-05-24 18:42:00,89.0,61.0,30.01,WNW,296,4.0,12.0,39,0.00,,,0.00,,2013-05-24 22:42:00,
2013-05-24 18:52:00,88.0,60.0,30.01,NW,304,6.0,13.0,39,0.00,,,0.00,,2013-05-24 22:52:00,
2013-05-24 19:02:00,87.0,64.0,30.01,NNW,329,6.0,12.0,46,0.00,,,0.00,,2013-05-24 23:02:00,
2013-05-24 19:11:00,87.0,64.0,30.01,NNW,329,6.0,12.0,46,0.00,,,0.00,,2013-05-24 23:11:00,
2013-05-24 19:22:00,87.0,65.0,30.02,NW,304,4.0,11.0,49,0.00,,,0.00,,2013-05-24 23:22:00,
2013-05-24 19:32:00,86.0,66.0,30.02,NW,324,5.0,13.0,51,0.00,,,0.00,,2013-05-24 23:32:00,
2013-05-24 19:42:00,86.0,66.0,30.02,NW,324,5.0,13.0,51,0.00,,,0.00,,2013-05-24 23:42:00,
2013-05-24 19:52:00,85.0,66.0,30.02,WNW,282,4.0,14.0,53,0.00,,,0.00,,2013-05-24 23:52:00,
2013-05-24 20:01:00,84.0,65.0,30.02,WNW,291,3.0,12.0,53,0.00,,,0.00,,2013-05-25 00:01:00,
2013-05-24 20:12:00,84.0,65.0,30.02,WNW,291,3.0,12.0,53,0.00,,,0.00,,2013-05-25 00:12:00,
2013-05-24 20:22:00,83.0,65.0,30.03,WNW,302,3.0,10.0,55,0.00,,,0.00,,2013-05-25 00:22:00,
2013-05-24 20:32:00,82.0,66.0,30.03,WNW,290,1.0,7.0,59,0.00,,,0.00,,2013-05-25 00:32:00,
2013-05-24 20:42:00,82.0,66.0,30.03,WNW,290,1.0,7.0,59,0.00,,,0.00,,2013-05-25 00:42:00,
2013-05-24 20:52:00,80.0,65.0,30.03,NW,315,1.0,4.0,60,0.00,,,0.00,,2013-05-25 00:52:00,
2013-05-24 21:01:00,79.0,65.0,30.03,WNW,300,1.0,4.0,62,0.00,,,0.00,,2013-05-25 01:01:00,
2013-05-24 21:11:00,79.0,65.0,30.03,WNW,300,1.0,4.0,62,0.00,,,0.00,,2013-05-25 01:11:00,
2013-05-24 21:22:00,78.0,65.0,30.04,NW,313,1.0,3.0,65,0.00,,,0.00,,2013-05-25 01:22:00,
2013-05-24 21:32:00,76.0,65.0,30.04,NW,313,0.0,2.0,69,0.00,,,0.00,,2013-05-25 01:32:00,
2013-05-24 21:42:00,76.0,65.0,30.04,NW,313,0.0,2.0,69,0.00,,,0.00,,2013-05-25 01:42:00,
2013-05-24 21:52:00,74.0,65.0,30.04,NW,313,0.0,1.0,73,0.00,,,0.00,,2013-05-25 01:52:00,
2013-05-24 22:02:00,73.0,65.0,30.05,NW,313,0.0,2.0,76,0.00,,,0.00,,2013-05-25 02:02:00,
2013-05-24 22:12:00,73.0,65.0,30.05,NW,313,0.0,2.0,76,0.00,,,0.00,,2013-05-25 02:12:00,
2013-05-24 22:22:00,73.0,65.0,30.05,NW,313,0.0,2.0,76,0.00,,,0.00,,2013-05-25 02:22:00,
2013-05-24 22:32:00,73.0,65.0,30.06,NW,306,2.0,5.0,76,0.00,,,0.00,,2013-05-25 02:32:00,
2013-05-24 22:42:00,73.0,65.0,30.06,NW,306,2.0,5.0,76,0.00,,,0.00,,2013-05-25 02:42:00,
2013-05-24 22:52:00,75.0,65.0,30.07,WNW,296,1.0,5.0,72,0.00,,,0.00,,2013-05-25 02:52:00,
2013-05-24 23:02:00,74.0,65.0,30.07,WNW,290,0.0,2.0,74,0.00,,,0.00,,2013-05-25 03:02:00,
2013-05-24 23:11:00,74.0,65.0,30.07,WNW,290,0.0,2.0,74,0.00,,,0.00,,2013-05-25 03:11:00,
2013-05-24 23:22:00,72.0,65.0,30.07,WNW,290,0.0,1.0,80,0.00,,,0.00,,2013-05-25 03:22:00,
2013-05-24 23:33:00,72.0,65.0,30.08,WNW,290,0.0,0.0,80,0.00,,,0.00,,2013-05-25 03:33:00,
2013-05-24 23:43:00,72.0,65.0,30.08,WNW,290,0.0,0.0,80,0.00,,,0.00,,2013-05-25 03:43:00,
2013-05-24 23:53:00,73.0,68.0,30.09,NNW,328,0.0,1.0,83,0.00,,,0.00,,2013-05-25 03:53:00,